Hourly Data Report for October 13, 2015

All times are specified in Local Standard Time (LST). Add 1 hour to adjust for Daylight Saving Time where and when it is observed.

MONCTON INTL A
NEW BRUNSWICK

46°06'44.000" N
64°40'43.000" W
70.70 m
8103201
71705
YQM

Download Data

Hourly Data (October 2015)
Hourly Data Report for October 13, 2015
Temp Definition
°C
Dew Point Temp Definition
°C
Rel Hum Definition
%
Wind Dir Definition
10's deg

Wind Spd Definition
km/h
Visibility Definition
km
Stn Press Definition
kPa
Hmdx Definition


Wind Chill Definition


Weather Definition


TIME
00:00 Legend Double Dagger 11.1 9.5 90 16 10 24.1 100.14     LegendNANA
01:00 Legend Double Dagger 10.8 9.4 91 17 10 24.1 100.13     LegendNANA
02:00 Legend Double Dagger 10.6 9.5 93 15 8 24.1 100.10     Clear
03:00 Legend Double Dagger 11.2 9.6 90 17 18 24.1 100.10     LegendNANA
04:00 Legend Double Dagger 11.4 10.0 91 15 17 24.1 100.05     LegendNANA
05:00 Legend Double Dagger 10.9 9.5 91 16 17 24.1 100.06     Clear
06:00 Legend Double Dagger 10.4 9.3 93 17 15 24.1 100.04     LegendNANA
07:00 Legend Double Dagger 9.7 9.1 96 15 9 24.1 99.99     LegendNANA
08:00 Legend Double Dagger 13.3 12.8 97 15 12 24.1 99.96     Mostly Cloudy
09:00 Legend Double Dagger 14.9 13.6 92 16 14 24.1 99.93     LegendNANA
10:00 Legend Double Dagger 15.5 14.4 93 11 11 24.1 99.88     LegendNANA
11:00 Legend Double Dagger 17.2 14.3 83 12 13 24.1 99.78     Cloudy
12:00 Legend Double Dagger 17.4 14.9 85 16 8 24.1 99.67     LegendNANA
13:00 Legend Double Dagger 16.5 15.9 96 10 9 11.3 99.52     Rain
14:00 Legend Double Dagger 16.9 16.4 97 9 12 9.7 99.38     Rain,Fog
15:00 Legend Double Dagger 17.3 16.8 97 9 10 11.3 99.23     Rain
16:00 Legend Double Dagger 17.5 17.0 97 14 9 4.8 99.17     Moderate Rain,Fog
17:00 Legend Double Dagger 18.0 17.5 97 14 18 6.4 99.06     Rain,Fog
18:00 Legend Double Dagger 18.2 17.6 96 16 15 19.3 98.99     Rain Showers
19:00 Legend Double Dagger 18.2 17.6 96 17 20 16.1 98.93     Moderate Rain Showers
20:00 Legend Double Dagger 18.2 17.6 96 17 14 24.1 98.91     Mostly Cloudy
21:00 Legend Double Dagger 17.8 17.0 95 21 15 24.1 98.92     LegendNANA
22:00 Legend Double Dagger 17.7 16.6 93 21 18 24.1 98.93     LegendNANA
23:00 Legend Double Dagger 16.6 15.6 94 22 16 24.1 98.93     Mainly Clear

Notes on Data Quality.

Legend

  • E = Estimated
  • M = Missing
  • NA = Not Available
  • ‡ = Partner data that is not subject to review by the National Climate Archives
Date modified: